When you browse on this site, cookies collect data to enhance your experience and personalize the content and advertising you see.
Visit our Privacy Policy to learn more. By continuing to use the site, you agree to this use of cookies and data.
  • In Czech Republic
  • List of Countries
  • For 7 days
  • Water Temperature
  • Satellite Maps
  • Weather Map
  • Weather Widgets
  • user-avatar
    Login

    Hourly Weather Nurumbal

    Today, 21 November, Wednesday

    Time Temperature Precipitation Wind Pressure Humidity
    00:00 -7°C° 0 mm 4 mps 747 mmHg 83%
    01:00 -7°C° 0 mm 4 mps 747 mmHg 82%
    02:00 -7°C° 0 mm 5 mps 746 mmHg 82%
    03:00 -7°C° 0 mm 5 mps 746 mmHg 81%
    04:00 -6°C° 0.1 mm 5 mps 745 mmHg 82%
    05:00 -6°C° 0.1 mm 5 mps 745 mmHg 83%
    06:00 -6°C° 0.1 mm 5 mps 744 mmHg 84%
    07:00 -6°C° 0.1 mm 5 mps 744 mmHg 84%
    08:00 -5°C° 0.1 mm 5 mps 743 mmHg 84%
    09:00 -5°C° 0.1 mm 6 mps 743 mmHg 84%
    10:00 -4°C° 0.2 mm 6 mps 743 mmHg 82%
    11:00 -4°C° 0.2 mm 6 mps 743 mmHg 80%
    12:00 -3°C° 0.2 mm 7 mps 743 mmHg 78%
    13:00 -4°C° 0 mm 7 mps 743 mmHg 75%
    14:00 -5°C° 0 mm 6 mps 743 mmHg 72%
    15:00 -6°C° 0 mm 6 mps 743 mmHg 69%
    16:00 -6°C° 0 mm 6 mps 744 mmHg 70%
    17:00 -8°C° 0 mm 6 mps 744 mmHg 70%
    18:00 -8°C° 0 mm 6 mps 745 mmHg 71%
    19:00 -8°C° 0 mm 5 mps 745 mmHg 73%
    20:00 -8°C° 0 mm 5 mps 745 mmHg 76%
    21:00 -8°C° 0 mm 5 mps 745 mmHg 78%
    22:00 -8°C° 0 mm 5 mps 744 mmHg 80%
    23:00 -8°C° 0 mm 5 mps 744 mmHg 82%

    Tomorrow, 22 November, Thursday

    Time Temperature Precipitation Wind Pressure Humidity
    00:00 -8°C° 0 mm 4 mps 744 mmHg 84%
    01:00 -8°C° 0 mm 4 mps 744 mmHg 86%
    02:00 -8°C° 0 mm 4 mps 743 mmHg 88%
    03:00 -8°C° 0 mm 4 mps 743 mmHg 89%
    04:00 -8°C° 0.1 mm 4 mps 742 mmHg 89%
    05:00 -7°C° 0.1 mm 4 mps 742 mmHg 88%
    06:00 -7°C° 0.1 mm 5 mps 741 mmHg 88%
    07:00 -7°C° 0.3 mm 5 mps 741 mmHg 87%
    08:00 -6°C° 0.3 mm 5 mps 741 mmHg 86%
    09:00 -6°C° 0.3 mm 5 mps 740 mmHg 85%
    10:00 -6°C° 0.1 mm 5 mps 740 mmHg 84%
    11:00 -5°C° 0.1 mm 5 mps 739 mmHg 82%
    12:00 -5°C° 0.1 mm 5 mps 738 mmHg 81%
    13:00 -5°C° 0.4 mm 5 mps 738 mmHg 83%
    14:00 -5°C° 0.4 mm 6 mps 737 mmHg 85%
    15:00 -5°C° 0.4 mm 6 mps 737 mmHg 88%
    16:00 -6°C° 0.3 mm 6 mps 736 mmHg 87%
    17:00 -6°C° 0.3 mm 6 mps 735 mmHg 86%
    18:00 -6°C° 0.3 mm 6 mps 734 mmHg 85%
    19:00 -6°C° 0.4 mm 5 mps 734 mmHg 87%
    20:00 -5°C° 0.4 mm 4 mps 733 mmHg 90%
    21:00 -5°C° 0.4 mm 4 mps 732 mmHg 93%
    22:00 -6°C° 1 mm 5 mps 732 mmHg 91%
    23:00 -6°C° 1 mm 5 mps 732 mmHg 90%

    Day after tomorrow, 23 November, Friday

    Time Temperature Precipitation Wind Pressure Humidity
    00:00 -6°C° 1 mm 6 mps 732 mmHg 89%
    01:00 -8°C° 0.6 mm 7 mps 732 mmHg 85%
    02:00 -10°C° 0.6 mm 9 mps 733 mmHg 82%
    03:00 -12°C° 0.6 mm 10 mps 733 mmHg 78%
    04:00 -11°C° 0.1 mm 9 mps 734 mmHg 79%
    05:00 -12°C° 0.1 mm 8 mps 735 mmHg 79%
    06:00 -12°C° 0.1 mm 7 mps 736 mmHg 80%
    07:00 -12°C° 0 mm 8 mps 737 mmHg 79%
    08:00 -13°C° 0 mm 8 mps 739 mmHg 78%
    09:00 -13°C° 0 mm 8 mps 740 mmHg 77%
    10:00 -13°C° 0 mm 8 mps 741 mmHg 76%
    11:00 -13°C° 0 mm 8 mps 742 mmHg 76%
    12:00 -13°C° 0 mm 8 mps 743 mmHg 75%
    13:00 -13°C° 0 mm 7 mps 744 mmHg 77%
    14:00 -13°C° 0 mm 7 mps 745 mmHg 80%
    15:00 -14°C° 0 mm 6 mps 746 mmHg 82%
    16:00 -13°C° 0 mm 5 mps 746 mmHg 84%
    17:00 -13°C° 0 mm 5 mps 747 mmHg 86%
    18:00 -14°C° 0 mm 4 mps 748 mmHg 88%
    19:00 -14°C° 0 mm 4 mps 748 mmHg 88%
    20:00 -14°C° 0 mm 4 mps 748 mmHg 88%
    21:00 -14°C° 0 mm 4 mps 748 mmHg 89%
    22:00 -12°C° 0 mm 4 mps 748 mmHg 89%
    23:00 -12°C° 0 mm 4 mps 748 mmHg 89%

    24 November, Saturday

    Time Temperature Precipitation Wind Pressure Humidity
    00:00 -11°C° 0 mm 4 mps 748 mmHg 89%
    01:00 -11°C° 0.1 mm 4 mps 748 mmHg 88%
    02:00 -10°C° 0.1 mm 4 mps 748 mmHg 88%
    03:00 -10°C° 0.1 mm 4 mps 748 mmHg 87%
    04:00 -10°C° 0 mm 4 mps 748 mmHg 88%
    05:00 -11°C° 0 mm 5 mps 747 mmHg 88%
    06:00 -11°C° 0 mm 5 mps 747 mmHg 89%
    07:00 -11°C° 0 mm 5 mps 747 mmHg 89%
    08:00 -10°C° 0 mm 5 mps 747 mmHg 88%
    09:00 -10°C° 0 mm 6 mps 747 mmHg 87%
    10:00 -9°C° 0 mm 6 mps 747 mmHg 87%
    11:00 -9°C° 0 mm 6 mps 746 mmHg 86%
    12:00 -9°C° 0 mm 6 mps 746 mmHg 86%
    13:00 -8°C° 0.1 mm 6 mps 746 mmHg 85%
    14:00 -8°C° 0.1 mm 6 mps 746 mmHg 84%
    15:00 -8°C° 0.1 mm 6 mps 745 mmHg 84%
    16:00 -8°C° 0 mm 6 mps 745 mmHg 84%
    17:00 -6°C° 0 mm 6 mps 745 mmHg 85%
    18:00 -6°C° 0 mm 6 mps 745 mmHg 85%
    19:00 -6°C° 0 mm 6 mps 745 mmHg 85%
    20:00 -6°C° 0 mm 6 mps 745 mmHg 85%
    21:00 -6°C° 0 mm 6 mps 744 mmHg 85%
    22:00 -6°C° 0 mm 6 mps 744 mmHg 85%
    23:00 -6°C° 0 mm 5 mps 744 mmHg 85%

    25 November, Sunday

    Time Temperature Precipitation Wind Pressure Humidity
    00:00 -6°C° 0 mm 5 mps 744 mmHg 86%
    01:00 -6°C° 0 mm 5 mps 744 mmHg 86%
    02:00 -6°C° 0 mm 5 mps 744 mmHg 86%
    03:00 -6°C° 0 mm 5 mps 744 mmHg 86%
    04:00 -6°C° 0 mm 5 mps 744 mmHg 86%
    05:00 -6°C° 0 mm 5 mps 743 mmHg 86%
    06:00 -6°C° 0 mm 5 mps 743 mmHg 86%
    07:00 -6°C° 0.1 mm 5 mps 743 mmHg 86%
    08:00 -6°C° 0.1 mm 5 mps 743 mmHg 86%
    09:00 -6°C° 0.1 mm 6 mps 743 mmHg 86%
    10:00 -6°C° 0 mm 6 mps 743 mmHg 85%
    11:00 -5°C° 0 mm 6 mps 743 mmHg 85%
    12:00 -5°C° 0 mm 6 mps 743 mmHg 84%
    13:00 -5°C° 0 mm 5 mps 744 mmHg 84%
    14:00 -5°C° 0 mm 5 mps 744 mmHg 85%
    15:00 -4°C° 0 mm 4 mps 744 mmHg 85%
    16:00 -5°C° 0 mm 4 mps 745 mmHg 87%
    17:00 -7°C° 0 mm 4 mps 745 mmHg 89%
    18:00 -7°C° 0 mm 3 mps 746 mmHg 91%
    19:00 -8°C° 0 mm 3 mps 746 mmHg 92%
    20:00 -8°C° 0 mm 3 mps 746 mmHg 93%
    21:00 -8°C° 0 mm 2 mps 746 mmHg 94%
    22:00 -8°C° 0 mm 2 mps 747 mmHg 94%
    23:00 -9°C° 0 mm 2 mps 747 mmHg 95%

    26 November, Monday

    Time Temperature Precipitation Wind Pressure Humidity
    00:00 -9°C° 0 mm 2 mps 747 mmHg 95%
    01:00 -9°C° 0 mm 2 mps 747 mmHg 95%
    02:00 -9°C° 0 mm 2 mps 747 mmHg 95%
    03:00 -9°C° 0 mm 2 mps 747 mmHg 95%
    04:00 -9°C° 0 mm 2 mps 747 mmHg 96%
    05:00 -9°C° 0 mm 2 mps 747 mmHg 96%
    06:00 -9°C° 0 mm 2 mps 747 mmHg 96%
    07:00 -9°C° 0 mm 2 mps 747 mmHg 96%
    08:00 -9°C° 0 mm 2 mps 747 mmHg 96%
    09:00 -8°C° 0 mm 1 mps 747 mmHg 96%
    10:00 -7°C° 0 mm 1 mps 747 mmHg 94%
    11:00 -6°C° 0 mm 1 mps 746 mmHg 93%
    12:00 -4°C° 0 mm 1 mps 746 mmHg 91%
    13:00 -6°C° 0 mm 1 mps 746 mmHg 92%
    14:00 -7°C° 0 mm 2 mps 745 mmHg 93%
    15:00 -7°C° 0 mm 2 mps 745 mmHg 94%
    16:00 -7°C° 0.1 mm 2 mps 744 mmHg 94%
    17:00 -7°C° 0.1 mm 2 mps 744 mmHg 95%
    18:00 -7°C° 0.1 mm 2 mps 743 mmHg 95%
    19:00 -7°C° 0.2 mm 2 mps 743 mmHg 95%
    20:00 -7°C° 0.2 mm 2 mps 742 mmHg 96%
    21:00 -7°C° 0.2 mm 2 mps 742 mmHg 96%
    22:00 -7°C° 0.3 mm 2 mps 742 mmHg 96%
    23:00 -7°C° 0.3 mm 2 mps 741 mmHg 96%
    Show more